Flag for Bangladesh Weather past 2 weeks in Dhaka, Bangladesh

Now
81 °F

Thunderstorms. More clouds than sun.


Feels Like: 84 °F
Forecast: 68 / 86 °F
Wind: 23 mph from Northwest

Location: Chittagong Patenga

Current Time: Mar 4, 2015 at 1:35:43 PM

Latest Report: Mar 4, 2015 at 11:50 AM


Visibility: 2 mi

Pressure: 29.89 "Hg

Humidity: 70%

Dew point: 70 °F

Location of DhakaLocation

Historic Weather in Dhaka — Graph

°F

Dhaka temperature yesterday

Maximum temperature yesterday: 88 °F (at 12:50 PM)
Minimum temperature yesterday: 73 °F (at 6:50 AM)
Average temperature yesterday: 82 °F

Past Weeks' High & Low Weather Summary

 TemperatureHumidityPressure
High91 °F (Mar 2, 2:50 PM)100% (Mar 2, 5:50 AM)30.01 "Hg (Mar 2, 5:50 AM)
Low66 °F (Feb 19, 5:50 AM)37% (Feb 17, 11:50 AM)29.74 "Hg (Mar 3, 4:50 PM)
Average78 °F71%29.87 "Hg
* Reported Feb 17 10:50 AM — Mar 4 10:50 AM, Dhaka, Weather by CustomWeather, © 2015

Note: Actual official high and low records may vary slightly from our data, if they occured in-between our weather recording intervals... More about our weather records

Advertising

Dhaka weather history for previous 24 hours

 ConditionsComfort  
Time TempWeatherWind HumidityBarometerVisibility
10:50 AM
Wed, Mar 4
82 °FBroken clouds.5 mph55%29.86 "Hg2 mi
9:50 AM82 °FHaze.6 mph55%29.86 "Hg2 mi
8:50 AM81 °FHaze.5 mph62%29.86 "Hg2 mi
7:50 AM73 °FBroken clouds.No wind89%29.86 "Hg2 mi
6:50 AM73 °FBroken clouds.7 mph94%29.86 "Hg1 mi
11:50 PM
Tue, Mar 3
79 °FPassing clouds.No wind89%29.80 "Hg2 mi
10:50 PM79 °FPassing clouds.No wind74%29.83 "Hg2 mi
9:50 PM79 °FHaze.3 mph84%29.83 "Hg2 mi
8:50 PM79 °FHaze.6 mph84%29.80 "Hg2 mi
7:50 PM79 °FHaze.5 mph79%29.77 "Hg2 mi
6:50 PM81 °FHaze.5 mph79%29.77 "Hg2 mi
5:50 PM82 °FHaze.6 mph74%29.77 "Hg2 mi
4:50 PM84 °FHaze.6 mph58%29.74 "Hg2 mi
3:50 PM86 °FHaze.7 mph55%29.77 "Hg2 mi
2:50 PM88 °FHaze.8 mph52%29.77 "Hg2 mi
1:50 PM88 °FHaze.8 mph55%29.80 "Hg2 mi
Weather by CustomWeather, © 2015

See weather overviewHow to use our weather pages